Regional Weather Roundup
Issued by NWS Newport/Morehead, NC

Current Version | Previous Version | Graphics & Text | Print | Product List | Glossary On
Versions: 1 2 3 4 5 6 7 8 9 10 11 12 13 14 15 16 17 18 19 20 21 22 23 24 25 26 27 28 29 30 31 32 33 34 35 36 37 38 39 40 41 42 43 44 45 46 47 48 49 50
000 ASUS42 KMHX 201125 RWRMHX WEATHER ROUNDUP FOR EASTERN NORTH CAROLINA NATIONAL WEATHER SERVICE NEWPORT/MOREHEAD CITY NC 700 AM EDT WED SEP 20 2017 NOTE: "FAIR" INDICATES FEW OR NO CLOUDS BELOW 12,000 FEET WITH NO SIGNIFICANT WEATHER AND/OR OBSTRUCTIONS TO VISIBILITY NCZ015>017-031-032-045>047-102-103-201200- NORTH COAST CITY SKY/WX TMP DP RH WIND PRES REMARKS EDENTON MOCLDY 71 66 84 CALM 29.96R ELIZABETH CITY MOCLDY 69 67 93 W8 29.93R KITTY HAWK SUNNY 70 65 86 W6 29.91R MANTEO CLEAR 71 67 89 W6 29.93R $$ NCZ045>047-081-094-103-104-201200- CENTRAL COAST CITY SKY/WX TMP DP RH WIND PRES REMARKS FRISCO CLOUDY 75 68 78 W7 29.94R $$ NCZ095-097-098-100-101-201200- SOUTHERN COAST CITY SKY/WX TMP DP RH WIND PRES REMARKS BEAUFORT CLEAR 70 67 90 CALM 29.98R CEDAR ISLAND NOT AVBL JACKSONVILLE CLEAR 66 65 96 W5 29.98R PINEY ISLAND N/A N/A N/A N/A W6 29.97R WILMINGTON CLEAR 66 65 96 CALM 30.00R $$ NCZ011>013-027>030-043-044-078>080-089-090>093-098-201200- COASTAL PLAIN CITY SKY/WX TMP DP RH WIND PRES REMARKS AHOSKIE N/A 63 63 100 CALM 29.97R CLINTON CLEAR 64 64 100 CALM 30.01R ELIZABETHTOWN NOT AVBL GOLDSBORO CLEAR 64 64 100 CALM 29.98R GREENVILLE CLEAR 64 64 100 W5 30.00R FOG HAVELOCK CLEAR 67 66 97 CALM 29.99R KENANSVILLE CLEAR 63 61 94 CALM 30.00R FOG KINSTON CLEAR 64 63 94 CALM 29.99R FOG NEW BERN CLEAR 65 64 97 SW3 29.99R RICHLANDS CLEAR 62 62 100 CALM 30.00R FOG ROCKY MOUNT FOG 62 62 100 CALM 29.98R VSB 1/2 WASHINGTON CLEAR 64 64 97 CALM 29.98R FOG WHITEVILLE CLEAR 66 65 96 CALM 30.01R $$ AMZ130-135-150-152-154-156-158-170-250-252-270-ANZ085-086-088-633-658-670-201200- MARINE OBSERVATIONS STATION/POSITION TIME TEMP WIND PRES WAVE SWELL AIR SEA DIR/SP/G HT/PER HT/PER (UTC) (F) (DEG/KT/KT) (MB) (FT/S) (FT/S) CHESAPEAKE LIGHT NOT AVBL 64 E VA BEACH 1050 70 70 300/ 12/ 16 1011.7 10/11 8/11 DUCK 1054 71 74 290/ 12/ 14 1012.5 2 E DUCK 1100 74 N/A 6/10 3/11 OREGON INLET 1054 71 73 270/ 9/ 14 1013.0 13E OREGON INLT 1048 74 N/A 8/11 8/11 HATTERAS CG 1054 75 75 280/ 12/ 14 1013.8 DIAMOND BUOY 1050 75 74 280/ 12/ 16 1013.6 6/11 5/11 CAPE LOOKOUT 1100 74 280/ 7/ 8 1014.8 BEAUFORT LAB 1054 72 74 290/ 3/ 4 1014.5 30 SE NEW RVR IN 1108 79 300/ 8/ 12 1015.2 30 SE NEW RVR IN NOT AVBL 27 SE WRIGHTSVLE 1108 78 79 280/ 10/ 14 1015.5 5 SE WRIGHTSVLE 1108 75 78 290/ 10/ 16 1015.4 225 S CAPE HAT 1050 78 80 290/ 6/ 8 1015.5 8/11 8/11 41 SE CHARLESTON 1110 79 82 290/ 8/ 10 1015.7 $$

USA.gov is the U.S. government's official web portal to all federal, state and local government web resources and services.